Regional Weather Roundup
Issued by NWS

Home | Current Version | Previous Version | Graphics & Text | Print | Product List | Glossary On
Versions: 1 2 3 4 5 6 7 8 9 10 11 12 13 14 15 16 17 18 19 20 21 22 23 24 25 26 27 28 29 30 31 32 33 34 35 36 37 38 39 40 41 42 43 44 45 46 47 48 49 50
226
ASUS45 KPSR 230410
RWRAZ

ARIZONA HOURLY REGIONAL WEATHER ROUNDUP
NATIONAL WEATHER SERVICE PHOENIX AZ
900 PM MST THU FEB 22 2018

NOTE: FAIR INDICATES FEW OR NO CLOUDS BELOW 12,000 FEET WITH NO
SIGNIFICANT WEATHER AND/OR OBSTRUCTIONS TO VISIBILITY.

AZZ001>003-036-230500-
NORTHWEST ARIZONA

CITY           SKY/WX    TMP DP  RH WIND       PRES   REMARKS
BULLHEAD CITY  CLEAR     57  25  28 S20G25    30.00R
KINGMAN        CLEAR     43  23  45 S16       30.01R
$$

AZZ004>008-015-016-018-230500-
NORTH CENTRAL ARIZONA

CITY           SKY/WX    TMP DP  RH WIND       PRES   REMARKS
GRAND CANYON   MOCLDY    26  12  55 SW9       29.99R WCI  17
WILLIAMS       CLOUDY    28  16  59 S22G36    29.98F WCI  15
PRESCOTT       CLOUDY    36  19  50 S10       30.09R WCI  28
FLAGSTAFF      FLURRIES  26  17  68 SW25G36   30.02R WCI  11
PAYSON         CLEAR     34  16  47 S3        30.11S
PAGE           PTCLDY    41  10  28 SW12G17   29.96S
$$

AZZ009>014-017-230500-
NORTHEAST ARIZONA

CITY           SKY/WX    TMP DP  RH WIND       PRES   REMARKS
WINSLOW        CLEAR     27   4  37 CALM      30.07R
SAINT JOHNS    CLEAR     32   9  38 SE6       30.05R WCI  26
WINDOW ROCK    CLEAR     29  11  47 SW9       30.03R WCI  20
SHOW LOW       CLEAR     30  10  43 S18G28    30.06F WCI  18
$$

AZZ540-542>544-546-548-230500-
GREATER PHOENIX AREA

CITY           SKY/WX    TMP DP  RH WIND       PRES   REMARKS
PHOENIX        CLEAR     54  25  32 CALM      30.12R
BUCKEYE        CLEAR     48  21  34 W5        30.13S
LUKE AFB       CLEAR     51  23  34 CALM      30.11R
DEER VALLEY    CLEAR     50  20  30 W3        30.12R
SCOTTSDALE     CLEAR     52  25  35 CALM      30.14R
MESA-GATEWAY   CLEAR     48  25  40 CALM      30.14S
$$

AZZ539-553-230500-
SOUTHWEST MARICOPA COUNTY AND PINAL COUNTY

CITY           SKY/WX    TMP DP  RH WIND       PRES   REMARKS
CASA GRANDE      N/A     48  24  39 CALM      30.13S
GILA BEND      FAIR      50  19  29 SW6       30.12S
$$

AZZ503-504-507>509-230500-
SOUTHEAST ARIZONA

CITY           SKY/WX    TMP DP  RH WIND       PRES   REMARKS
TUCSON         CLEAR     51  22  31 CALM      30.16S
DAVIS-MONTHAN  CLEAR     44  17  34 CALM      30.14S
NOGALES        CLEAR     40  26  57 CALM      30.16R
SIERRA VISTA   CLEAR     43  22  42 W9        30.16R
DOUGLAS        CLEAR     45  21  38 W3        30.14R
SAFFORD        CLEAR     41  23  48 N5        30.12S
$$

AZZ532-230500-
SOUTHWEST ARIZONA

CITY           SKY/WX    TMP DP  RH WIND       PRES   REMARKS
YUMA           CLEAR     55  30  38 W6        30.14R
$$

CAZ041-043-047-048-061-525>527-560>570-230500-
SOUTHERN CALIFORNIA

CITY           SKY/WX    TMP DP  RH WIND       PRES   REMARKS
DOWNTOWN L.A.  CLEAR     53  41  63 CALM      30.16S
L.A. AIRPORT   PTCLDY    53  41  63 W18       30.18R
SAN DIEGO      MOCLDY    56  45  66 W8        30.23R
BURBANK        PTCLDY    51  38  60 W7        30.15R
ONTARIO        PTCLDY    49  37  63 SW7       30.16S
RIVERSIDE      PTCLDY    49  38  65 SW5       30.17S
PALM SPRINGS   PTCLDY    58  31  35 N9        30.09S
EL CENTRO NAS  PTCLDY    55  37  50 W10       30.16R
IMPERIAL       CLEAR     56  38  50 W16       30.13R
BLYTHE         CLEAR     56  32  40 SW14      30.09R
NEEDLES        CLOUDY    60  26  27 SW14      30.03R
$$

NVZ020-UTZ003-230500-
SOUTHERN NEVADA-UTAH

CITY           SKY/WX    TMP DP  RH WIND       PRES   REMARKS
LAS VEGAS      PTCLDY    50  11  20 SW12G20   29.93R
SALT LAKE CITY CLOUDY    33  23  66 SW6       29.95S WCI  28
$$

NMZ009-TXZ055-230500-
NEW MEXICO-WEST TEXAS

CITY           SKY/WX    TMP DP  RH WIND       PRES   REMARKS
ALBUQUERQUE    CLEAR     39  15  37 SW3       30.06R
EL PASO        CLEAR     50  22  33 E6        30.11R
$$


........................KEY........................
SKY/WX - SKY CONDITION/WEATHER
TMP    - TEMPERATURE IN FAHRENHEIT
DP     - DEW POINT IN FAHRENHEIT
RH     - RELATIVE HUMIDITY IN PERCENT
WIND   - DIRECTION AND SPEED IN MILES PER HOUR (MPH)
VRB    - VARIABLE WIND DIRECTION
PRES   - MEAN SEA LEVEL PRESSURE IN INCHES OF MERCURY
         F - FALLING PRESSURE   R - RISING PRESSURE
         S - STEADY PRESSURE
VSB    - VISIBILITY IN MILES
HX     - HEAT INDEX IN FAHRENHEIT
WCI    - WIND CHILL INDEX IN FAHRENHEIT
TC     - TEMPERATURE IN CELSIUS WHICH IS ALSO KNOWN AS
         TEMPERATURE IN CENTIGRADE
AFB    - AIR FORCE BASE
         LUKE AFB IS LUKE AIR FORCE BASE
         DAVIS-MONTHAN IS DAVIS-MONTHAN AIR FORCE BASE
NAS    - NAVAL AIR STATION
         EL CENTRO NAS IS EL CENTRO NAVAL AIR STATION
N/A    - NOT AVAILABLE





USA.gov is the U.S. government's official web portal to all federal, state and local government web resources and services.